UAE546 OMDB-VOMM

Flight info

Callsign UAE546
Flight time N/A
Altitude 33000
Route ANVIX L223 TARDI N629 TOTOX P574 OPAMO OPAMO2E
Aircraft B77W/H-SDE1E2E3FGHIJ2J3J4J5M1RWXY/LB1D1

Departure

Time N/A
Airport Dubai International Airport (OMDB)

Arrival

Time 2026-04-28 19:53
Airport Chennai International Airport (VOMM)
Time Latitude Longitude Altitude Speed Heading
2026-04-28 19:10 15.53761 75.84647 32855 ft 535 kts 109°
2026-04-28 19:10 15.52596 75.88314 32859 ft 535 kts 109°
2026-04-28 19:11 15.49921 75.95481 32860 ft 532 kts 118°
2026-04-28 19:11 15.46178 76.02004 32862 ft 529 kts 128°
2026-04-28 19:12 15.41563 76.07911 32864 ft 526 kts 133°
2026-04-28 19:12 15.36812 76.13680 32861 ft 526 kts 133°
2026-04-28 19:13 15.32076 76.19475 32857 ft 526 kts 133°
2026-04-28 19:13 15.27373 76.25287 32860 ft 526 kts 133°
2026-04-28 19:14 15.23472 76.30121 32865 ft 526 kts 132°
2026-04-28 19:14 15.18878 76.36021 32860 ft 528 kts 127°
2026-04-28 19:15 15.15201 76.42632 32890 ft 530 kts 119°
2026-04-28 19:15 15.12422 76.48281 32880 ft 531 kts 118°
2026-04-28 19:16 15.08474 76.56227 32892 ft 530 kts 119°
2026-04-28 19:16 15.05084 76.62948 32891 ft 530 kts 119°
2026-04-28 19:17 15.01657 76.69705 32883 ft 530 kts 119°
2026-04-28 19:17 14.98231 76.76454 32889 ft 529 kts 119°
2026-04-28 19:18 14.94811 76.83193 32892 ft 529 kts 119°
2026-04-28 19:18 14.91390 76.89932 32894 ft 529 kts 119°
2026-04-28 19:19 14.87970 76.96662 32895 ft 529 kts 119°
2026-04-28 19:19 14.84552 77.03381 32892 ft 528 kts 119°
2026-04-28 19:20 14.81130 77.10102 32893 ft 528 kts 119°
2026-04-28 19:20 14.77706 77.16821 32888 ft 528 kts 119°
2026-04-28 19:21 14.74313 77.23475 32884 ft 527 kts 119°
2026-04-28 19:21 14.70949 77.30064 32888 ft 527 kts 119°
2026-04-28 19:22 14.68101 77.35638 32882 ft 526 kts 119°
2026-04-28 19:22 14.64102 77.43459 32882 ft 526 kts 119°
2026-04-28 19:23 14.60685 77.50137 32880 ft 526 kts 119°
2026-04-28 19:23 14.57267 77.56808 32878 ft 526 kts 119°
2026-04-28 19:24 14.53843 77.63488 32873 ft 525 kts 119°
2026-04-28 19:24 14.50426 77.70147 32873 ft 525 kts 119°
2026-04-28 19:25 14.47023 77.76772 32873 ft 525 kts 119°
2026-04-28 19:25 14.43599 77.83434 32872 ft 525 kts 119°
2026-04-28 19:26 14.40178 77.90085 32875 ft 525 kts 119°
2026-04-28 19:26 14.36750 77.96743 32871 ft 525 kts 119°
2026-04-28 19:27 14.33324 78.03391 32869 ft 525 kts 119°
2026-04-28 19:27 14.29918 78.09995 32867 ft 524 kts 119°
2026-04-28 19:28 14.26492 78.16631 32868 ft 524 kts 119°
2026-04-28 19:28 14.23060 78.23275 32868 ft 524 kts 119°
2026-04-28 19:29 14.20209 78.28790 32866 ft 524 kts 119°
2026-04-28 19:29 14.16196 78.36546 32858 ft 524 kts 119°
2026-04-28 19:30 14.12788 78.43126 32862 ft 523 kts 119°
2026-04-28 19:30 14.09366 78.49730 32862 ft 523 kts 119°
2026-04-28 19:31 14.05939 78.56338 32840 ft 523 kts 119°
2026-04-28 19:31 14.04221 78.59648 32522 ft 524 kts 119°
2026-04-28 19:31 14.02480 78.62951 32170 ft 520 kts 121°
2026-04-28 19:32 14.00668 78.66145 31828 ft 514 kts 122°
2026-04-28 19:32 13.98823 78.69262 31499 ft 508 kts 123°
2026-04-28 19:32 13.96970 78.72349 31204 ft 506 kts 123°
2026-04-28 19:32 13.95116 78.75441 31092 ft 507 kts 123°
2026-04-28 19:33 13.93201 78.78491 30835 ft 506 kts 127°
2026-04-28 19:33 13.91030 78.81324 30580 ft 501 kts 133°
2026-04-28 19:33 13.88609 78.83861 30285 ft 495 kts 139°
2026-04-28 19:33 13.86127 78.86261 29928 ft 494 kts 139°
2026-04-28 19:34 13.83624 78.88678 29489 ft 492 kts 139°
2026-04-28 19:34 13.81143 78.91084 29021 ft 489 kts 139°
2026-04-28 19:34 13.78683 78.93486 28515 ft 483 kts 138°
2026-04-28 19:34 13.76263 78.95858 27979 ft 478 kts 138°
2026-04-28 19:35 13.73862 78.98219 27416 ft 474 kts 138°
2026-04-28 19:35 13.71516 79.00528 26864 ft 470 kts 138°
2026-04-28 19:35 13.69155 79.02853 26322 ft 466 kts 137°
2026-04-28 19:35 13.66823 79.05147 25779 ft 462 kts 137°
2026-04-28 19:36 13.64515 79.07418 25258 ft 458 kts 137°
2026-04-28 19:36 13.62322 79.09573 24766 ft 455 kts 137°
2026-04-28 19:36 13.60049 79.11808 24262 ft 451 kts 137°
2026-04-28 19:36 13.57787 79.14029 23761 ft 447 kts 137°
2026-04-28 19:37 13.55544 79.16232 23234 ft 443 kts 137°
2026-04-28 19:37 13.54068 79.17680 22844 ft 441 kts 137°
2026-04-28 19:37 13.51116 79.20577 22069 ft 436 kts 137°
2026-04-28 19:37 13.48926 79.22725 21494 ft 433 kts 137°
2026-04-28 19:38 13.46752 79.24858 20941 ft 430 kts 136°
2026-04-28 19:38 13.44592 79.26975 20396 ft 428 kts 136°
2026-04-28 19:38 13.42472 79.29054 19869 ft 425 kts 136°
2026-04-28 19:38 13.40338 79.31146 19341 ft 423 kts 136°
2026-04-28 19:39 13.38214 79.33227 18820 ft 421 kts 136°
2026-04-28 19:39 13.36097 79.35301 18310 ft 418 kts 135°
2026-04-28 19:39 13.33998 79.37357 17748 ft 416 kts 135°
2026-04-28 19:39 13.31908 79.39404 17175 ft 414 kts 135°
2026-04-28 19:40 13.29825 79.41444 16671 ft 412 kts 135°
2026-04-28 19:40 13.27760 79.43464 16103 ft 409 kts 135°
2026-04-28 19:40 13.25702 79.45478 15558 ft 407 kts 135°
2026-04-28 19:40 13.23679 79.47457 15029 ft 405 kts 135°
2026-04-28 19:41 13.21648 79.49444 14499 ft 402 kts 135°
2026-04-28 19:41 13.19627 79.51420 13975 ft 400 kts 135°
2026-04-28 19:41 13.17609 79.53392 13441 ft 398 kts 135°
2026-04-28 19:41 13.15644 79.55311 12834 ft 382 kts 135°
2026-04-28 19:42 13.15483 79.55468 12784 ft 380 kts 135°
2026-04-28 19:42 13.13962 79.56953 12328 ft 368 kts 134°
2026-04-28 19:42 13.12141 79.58730 11786 ft 355 kts 134°
2026-04-28 19:42 13.10968 79.59876 11419 ft 348 kts 134°
2026-04-28 19:43 13.08666 79.62124 10689 ft 335 kts 134°
2026-04-28 19:43 13.07004 79.63747 10160 ft 326 kts 134°
2026-04-28 19:43 13.05515 79.65201 9722 ft 319 kts 134°
2026-04-28 19:43 13.03930 79.66748 9531 ft 302 kts 134°
2026-04-28 19:44 13.02449 79.68192 9209 ft 289 kts 134°
2026-04-28 19:44 13.01005 79.69602 8783 ft 282 kts 134°
2026-04-28 19:44 12.99609 79.70965 8417 ft 273 kts 134°
2026-04-28 19:44 12.98260 79.72282 8088 ft 263 kts 134°
2026-04-28 19:45 12.96949 79.73561 7796 ft 261 kts 134°
2026-04-28 19:45 12.95609 79.74871 7520 ft 271 kts 134°
2026-04-28 19:45 12.94234 79.76214 7193 ft 274 kts 135°
2026-04-28 19:45 12.92867 79.77546 6888 ft 275 kts 135°
2026-04-28 19:46 12.91491 79.78887 6575 ft 274 kts 135°
2026-04-28 19:46 12.90105 79.80236 6258 ft 274 kts 135°
2026-04-28 19:46 12.88749 79.81558 5905 ft 266 kts 135°
2026-04-28 19:46 12.87628 79.83018 5581 ft 256 kts 112°
2026-04-28 19:47 12.87231 79.84778 5404 ft 251 kts 96°
2026-04-28 19:47 12.87328 79.86495 5322 ft 238 kts 70°
2026-04-28 19:47 12.87995 79.88047 5051 ft 235 kts 66°
2026-04-28 19:47 12.88633 79.89546 5049 ft 228 kts 68°
2026-04-28 19:48 12.89212 79.90984 4893 ft 237 kts 69°
2026-04-28 19:48 12.89821 79.92539 4484 ft 241 kts 69°
2026-04-28 19:48 12.90423 79.94099 4071 ft 233 kts 70°
2026-04-28 19:48 12.91004 79.95614 3651 ft 225 kts 71°
2026-04-28 19:49 12.91570 79.97097 3180 ft 221 kts 72°
2026-04-28 19:49 12.92115 79.98540 2727 ft 211 kts 73°
2026-04-28 19:49 12.92621 79.99865 2585 ft 195 kts 73°
2026-04-28 19:49 12.93110 80.01122 2464 ft 181 kts 74°
2026-04-28 19:50 12.93991 80.03470 2391 ft 179 kts 75°
2026-04-28 19:50 12.94432 80.04644 2171 ft 172 kts 76°
2026-04-28 19:50 12.94854 80.05772 1919 ft 169 kts 75°
2026-04-28 19:51 12.95276 80.06901 1714 ft 167 kts 76°
2026-04-28 19:51 12.95683 80.07992 1511 ft 167 kts 76°
2026-04-28 19:51 12.96108 80.09135 1301 ft 171 kts 73°
2026-04-28 19:51 12.96534 80.10267 1048 ft 169 kts 73°
2026-04-28 19:52 12.96944 80.11365 854 ft 163 kts 72°
2026-04-28 19:52 12.97345 80.12426 639 ft 160 kts 71°
2026-04-28 19:52 12.97750 80.13490 475 ft 161 kts 71°
2026-04-28 19:52 12.98148 80.14555 212 ft 163 kts 72°
2026-04-28 19:53 12.98549 80.15646 60 ft 163 kts 71°
2026-04-28 19:53 12.98919 80.16633 53 ft 129 kts 69°
2026-04-28 19:53 12.99178 80.17327 55 ft 87 kts 68°
2026-04-28 19:53 12.99339 80.17762 60 ft 47 kts 69°
2026-04-28 19:54 12.99416 80.18070 57 ft 29 kts 109°
2026-04-28 19:54 12.99347 80.18074 58 ft 9 kts 232°
2026-04-28 19:54 12.99307 80.17987 56 ft 16 kts 249°
2026-04-28 19:54 12.99266 80.17879 57 ft 16 kts 249°
2026-04-28 19:55 12.99226 80.17771 58 ft 16 kts 249°
2026-04-28 19:55 12.99147 80.17693 55 ft 16 kts 218°
2026-04-28 19:55 12.99091 80.17595 55 ft 16 kts 250°
2026-04-28 19:55 12.99055 80.17488 57 ft 16 kts 249°
2026-04-28 19:56 12.99014 80.17382 58 ft 16 kts 249°
2026-04-28 19:56 12.98971 80.17276 53 ft 16 kts 245°
2026-04-28 19:56 12.98922 80.17173 52 ft 16 kts 246°
2026-04-28 19:56 12.98881 80.17067 53 ft 16 kts 249°
2026-04-28 19:57 12.98842 80.16960 53 ft 16 kts 249°
2026-04-28 19:57 12.98801 80.16854 53 ft 16 kts 248°
2026-04-28 19:57 12.98760 80.16747 52 ft 16 kts 248°
2026-04-28 19:57 12.98720 80.16641 56 ft 16 kts 249°
2026-04-28 19:58 12.98680 80.16533 53 ft 16 kts 248°
2026-04-28 19:58 12.98639 80.16428 54 ft 16 kts 248°
2026-04-28 19:58 12.98601 80.16320 53 ft 16 kts 251°
2026-04-28 19:58 12.98561 80.16214 56 ft 16 kts 248°
2026-04-28 19:59 12.98503 80.16148 55 ft 10 kts 191°
2026-04-28 19:59 12.98488 80.16146 57 ft 0 kts 181°
2026-04-28 19:59 12.98450 80.16154 53 ft 16 kts 165°
2026-04-28 19:59 12.98402 80.16239 52 ft 14 kts 76°
2026-04-28 20:00 12.98369 80.16301 52 ft 2 kts 153°
2026-04-28 20:00 12.98361 80.16305 54 ft 1 kts 154°
2026-04-28 20:00 12.98357 80.16307 52 ft 1 kts 155°
2026-04-28 20:00 12.98355 80.16308 53 ft 0 kts 155°